Theta_e
334 327 315 313 304 300 296 298 302 302 304 308 307 308 309 310 310 308 330 336 336 342 348 352 356 355 351 348 346 343 341 340 339 342 344 340 337 332 333 335 333 332 332 331 333 334 335 336 336
329 321 315 307 299 294 296 299 300 304 306 306 307 311 309 312 320 323 329 335 339 344 348 350 356 355 352 348 346 342 340 339 338 343 342 337 335 332 333 334 333 333 332 330 330 331 330 330 330
322 314 310 303 296 294 296 299 302 305 306 305 308 312 312 315 323 325 331 337 342 344 350 350 356 355 352 348 345 342 339 337 338 340 340 335 335 335 333 333 334 334 332 331 331 331 332 333 333
317 313 307 300 296 298 298 300 304 305 308 307 309 309 315 320 323 327 335 342 343 346 351 352 355 354 352 349 345 343 339 338 337 336 337 337 337 337 337 338 338 335 332 331 331 331 331 331 332
312 308 300 296 296 299 301 303 304 304 304 305 306 308 312 320 326 331 338 342 342 346 349 351 355 354 352 348 346 343 341 338 337 338 337 336 337 338 340 342 339 336 333 332 332 334 335 335 335
308 305 296 293 296 300 303 305 305 304 304 305 307 309 313 320 327 335 340 341 343 345 347 350 351 352 351 349 346 344 341 339 337 338 337 337 338 342 341 341 339 337 334 334 335 336 336 336 336
306 301 296 295 296 297 301 306 304 304 304 304 309 307 313 317 327 336 338 340 342 344 345 349 350 350 349 348 347 346 343 341 339 339 339 340 338 339 342 341 339 337 335 336 337 338 338 337 338
307 304 296 297 296 297 304 306 308 305 303 308 311 307 309 316 327 335 336 336 338 342 344 346 349 350 349 346 345 345 344 343 341 340 339 338 337 335 338 341 340 338 337 337 338 338 340 339 338
309 301 296 297 297 300 305 304 308 309 307 309 310 310 313 318 324 329 332 334 335 337 341 345 347 349 347 346 343 343 342 341 339 337 335 335 336 333 332 333 335 336 336 337 337 338 333 329 324
307 300 299 302 302 302 304 305 306 307 306 308 309 312 314 319 322 324 327 330 333 335 338 343 345 347 346 343 343 343 342 341 340 337 336 335 333 331 329 329 330 332 333 332 332 323 319 317 316
305 300 303 305 307 308 306 306 308 306 305 308 308 310 312 315 320 321 324 326 331 335 338 340 343 344 345 344 343 342 342 340 339 337 335 334 331 331 331 331 331 333 328 319 314 312 312 311 311
299 303 305 307 309 307 306 308 307 307 308 310 310 312 311 313 313 320 322 324 328 332 336 340 341 342 343 343 341 341 339 340 338 337 334 332 331 328 329 332 325 315 314 309 309 308 307 306 306
300 301 304 305 304 304 307 305 306 307 311 313 313 314 312 313 312 313 319 323 324 327 334 338 341 341 341 340 340 340 338 338 337 336 334 333 331 329 320 316 312 309 308 306 306 304 302 302 302
300 300 301 302 303 304 303 303 305 306 310 311 311 311 312 311 313 313 313 313 316 323 326 334 338 340 340 340 338 338 338 337 336 335 334 331 329 319 314 310 308 304 303 303 302 301 300 299 299
302 297 299 300 301 301 303 298 299 306 308 307 308 310 312 313 314 312 314 314 315 315 316 323 334 339 338 339 338 337 337 336 334 333 332 330 319 314 310 306 304 301 300 301 302 301 299 298 298
297 297 290 297 299 301 301 291 300 305 305 305 307 308 309 311 313 315 313 313 315 314 313 314 327 335 337 337 336 335 335 332 328 326 320 315 313 310 306 302 300 299 300 300 299 300 299 297 297
293 286 289 292 299 299 299 294 302 305 303 303 304 306 307 309 311 312 312 312 313 313 314 318 327 332 334 335 335 333 328 321 317 314 311 310 308 305 302 300 299 299 298 298 298 297 298 296 296
285 287 289 289 294 295 293 293 297 300 300 301 302 303 305 306 308 312 313 312 312 313 315 320 327 332 333 328 321 319 313 310 309 308 305 305 303 301 300 299 298 298 297 296 296 295 296 295 294
290 289 287 291 295 292 292 292 294 298 298 298 300 301 303 305 309 311 311 311 311 314 316 321 327 329 322 318 315 313 311 305 303 302 301 300 299 298 299 297 297 296 295 294 294 295 293 293 294
291 288 288 291 292 291 290 289 293 295 296 298 299 300 302 305 307 309 309 310 310 314 316 324 326 321 321 321 316 313 309 303 300 299 298 298 297 298 297 296 295 295 294 293 293 293 293 292 293
288 286 286 286 289 291 289 286 289 293 295 296 298 300 301 303 304 307 308 308 310 312 314 322 319 318 317 312 306 303 301 298 297 296 295 295 296 296 296 295 294 294 294 292 292 292 292 290 291
284 290 289 288 285 280 288 278 287 290 292 293 293 295 298 300 302 306 308 307 309 312 315 319 315 313 310 311 308 307 305 299 298 295 294 293 295 295 294 294 293 293 293 292 291 291 291 291 289
286 290 288 288 286 284 284 281 285 289 288 291 295 296 296 299 302 305 307 309 310 313 314 315 312 311 309 311 310 311 304 297 294 293 291 292 293 293 293 293 292 292 291 290 290 290 289 290 289
293 288 288 288 286 279 283 282 283 286 288 290 293 296 298 301 302 306 308 309 310 313 313 312 310 308 308 309 309 307 298 294 292 292 290 291 292 291 291 291 291 291 290 290 289 289 289 289 288
290 286 279 277 278 277 284 282 284 289 292 293 293 294 297 299 303 304 305 307 310 311 310 309 309 306 307 309 306 302 296 295 293 293 291 290 290 290 289 290 289 289 289 289 289 289 288 288 288
286 285 279 273 274 277 283 279 284 291 295 295 296 297 297 299 302 303 305 308 310 311 309 309 307 305 305 305 303 299 297 295 293 292 292 291 290 289 289 288 288 288 288 288 288 288 288 288 288
286 282 288 281 282 278 281 284 288 291 292 296 297 299 298 297 300 302 306 309 310 310 309 308 306 304 303 300 295 294 293 292 292 291 291 290 289 288 288 288 288 288 288 287 287 287 287 287 287
289 290 281 282 273 273 278 279 282 286 288 294 295 298 299 299 299 302 306 309 310 310 308 307 305 303 298 295 294 292 292 292 290 290 289 288 288 287 287 287 287 287 287 287 286 286 286 286 287
286 284 286 284 282 275 274 278 286 287 291 293 296 298 299 299 299 302 306 307 307 304 304 302 300 296 293 292 290 291 289 289 289 288 287 287 287 287 287 287 286 286 286 285 285 285 285 285 285
289 286 286 280 278 281 278 279 292 294 294 296 296 298 300 300 300 304 302 300 301 300 299 299 296 293 291 289 289 288 287 287 287 286 286 286 286 286 286 286 285 285 285 284 284 284 285 285 284
Wind_Speed
7 6 1 4 1 3 2 4 2 3 1 2 3 3 3 1 3 2 2 10 3 15 13 16 15 17 16 14 13 11 9 8 7 10 11 9 8 6 2 7 5 5 6 5 4 6 7 8 7
4 3 4 3 2 1 3 3 3 1 4 8 2 2 1 2 2 1 4 9 6 14 12 14 16 17 16 15 13 11 9 8 7 7 11 9 7 6 7 6 5 5 5 5 5 5 5 5 5
1 4 2 3 3 5 4 5 3 4 8 3 2 2 1 1 1 3 2 10 10 12 10 11 15 17 16 15 13 11 9 9 8 8 8 5 7 6 6 5 5 5 4 5 4 5 4 5 4
2 3 3 2 8 5 5 3 1 6 3 1 2 4 2 1 0 0 8 11 11 10 10 10 13 16 16 15 13 11 10 10 10 8 7 5 7 8 7 7 6 5 4 3 4 3 3 3 3
3 2 1 3 6 4 4 4 2 3 4 5 2 2 2 1 2 4 11 10 13 11 8 10 13 16 15 15 13 12 10 9 9 8 5 2 3 3 7 7 9 6 4 2 1 3 4 4 4
3 2 2 7 8 3 5 4 2 2 3 5 2 3 2 1 2 6 9 11 11 13 10 9 11 14 14 14 13 12 10 10 9 9 6 2 4 8 6 10 8 5 2 1 3 4 5 5 4
5 4 5 4 6 4 4 3 4 4 2 4 1 2 2 2 4 9 7 7 9 10 10 10 10 11 12 12 12 11 11 9 8 7 6 2 4 8 8 9 7 4 1 3 4 6 5 5 6
4 3 5 6 7 9 3 4 1 3 2 3 2 3 2 3 6 10 7 5 6 8 9 10 9 10 10 10 11 10 10 9 8 6 5 4 3 4 6 5 3 1 2 4 4 5 6 8 12
2 3 6 7 8 5 2 1 2 3 2 4 2 2 3 2 5 7 6 5 5 6 8 9 10 10 10 9 9 10 9 9 8 6 5 4 1 0 1 3 3 3 3 4 7 9 10 11 11
3 4 9 6 5 3 2 1 2 3 4 4 5 3 6 2 4 7 9 10 10 11 10 10 10 10 10 8 9 8 7 6 5 5 4 2 2 1 1 2 3 3 4 6 9 12 11 6 5
3 5 4 3 3 0 2 3 3 3 6 7 6 4 7 3 4 7 8 9 12 10 9 10 10 10 11 9 7 5 4 4 4 6 4 4 3 2 2 1 2 2 6 5 6 6 6 7 5
2 5 4 2 1 1 3 1 5 5 9 4 4 6 6 12 8 8 9 10 8 9 11 12 12 11 11 7 7 7 6 5 4 5 6 4 3 3 3 3 5 4 4 5 5 4 6 6 6
3 2 3 3 5 5 5 12 11 13 10 9 11 11 13 12 12 9 9 8 7 10 11 14 14 13 12 11 7 8 7 6 6 5 6 5 4 4 4 5 4 4 4 5 5 4 5 5 5
2 2 5 6 8 6 10 16 6 12 12 18 14 14 12 10 13 10 9 10 11 12 12 12 14 14 13 12 12 9 7 7 6 5 6 6 4 5 5 5 5 5 4 4 5 5 4 4 4
3 5 7 7 7 8 4 15 15 18 15 18 17 15 15 18 14 13 13 11 11 10 8 12 15 15 16 15 12 9 8 8 7 6 7 7 7 7 6 5 5 4 4 5 4 4 5 4 4
2 3 3 3 0 6 9 13 9 10 12 18 19 17 15 19 18 16 13 11 11 9 9 7 10 15 16 14 11 9 9 6 5 5 5 9 8 8 7 6 5 4 4 4 5 4 4 4 5
3 4 5 5 4 3 10 6 3 3 2 8 9 11 11 13 15 14 12 10 12 11 10 9 12 15 16 14 10 8 9 6 5 6 6 9 9 8 7 6 5 6 5 5 4 5 4 5 6
5 4 4 5 1 4 12 18 16 13 13 16 15 10 11 11 14 13 11 9 10 9 8 8 10 13 15 11 10 7 8 6 5 5 6 9 8 9 9 8 7 5 6 5 4 5 5 4 6
1 3 6 3 6 10 15 23 20 19 18 18 17 16 16 13 13 12 11 9 7 7 7 9 13 14 13 11 10 8 8 7 6 5 8 9 9 9 10 8 7 6 7 6 5 3 4 6 7
12 13 15 9 5 8 13 28 19 19 21 21 20 18 17 16 13 11 10 8 9 9 9 11 13 15 12 10 8 6 9 6 6 5 7 8 8 9 10 9 7 7 6 6 6 4 2 2 6
10 11 12 16 7 12 17 28 19 15 22 22 21 22 20 20 18 15 12 12 10 11 11 12 13 15 11 13 12 10 10 6 5 5 5 4 8 10 11 10 8 7 5 5 5 5 4 3 4
15 8 14 13 7 8 2 14 5 7 13 11 12 16 20 19 19 18 14 11 13 13 9 11 13 13 14 15 14 20 12 11 5 6 6 6 9 10 11 10 9 7 5 6 5 4 4 2 4
7 5 7 8 9 12 13 8 7 2 4 9 10 14 15 16 17 19 17 15 12 11 12 11 13 14 15 15 14 12 13 7 9 8 11 9 8 10 10 9 9 7 5 6 6 5 4 3 2
5 3 7 4 7 11 11 11 20 7 6 5 8 11 11 14 14 17 12 10 9 11 12 12 14 13 14 14 15 15 17 15 12 11 9 8 7 7 8 8 7 6 6 5 5 4 4 3 3
11 3 3 4 8 8 6 11 20 8 16 18 18 14 13 11 10 10 10 11 12 15 14 13 15 14 14 14 13 14 15 19 18 15 11 12 8 6 8 8 6 5 5 5 4 4 4 3 2
16 11 7 6 5 4 1 10 9 14 16 14 12 15 13 10 8 11 14 13 14 16 16 16 16 15 14 13 12 11 13 9 10 12 10 9 8 8 9 8 7 7 6 5 4 3 2 1 1
6 12 8 8 11 9 9 13 9 12 10 4 8 11 14 13 11 12 12 13 14 15 17 17 16 15 14 13 10 11 10 12 12 13 11 9 10 8 9 8 7 6 6 4 3 2 2 2 1
6 2 4 6 5 9 6 7 12 4 7 3 7 10 13 11 10 9 11 13 12 13 13 14 15 16 12 12 11 10 13 14 13 12 12 11 10 10 9 8 7 6 5 4 3 2 2 2 3
8 7 7 3 5 5 5 8 7 11 6 6 6 9 12 13 10 10 10 10 12 11 13 14 15 16 13 12 12 14 14 14 13 12 11 11 11 10 9 8 7 5 4 3 2 2 2 4 5
18 16 19 10 12 6 3 15 2 4 5 6 8 9 9 9 4 5 10 13 14 14 13 14 14 14 13 13 14 14 14 14 13 12 11 10 10 9 8 7 6 4 3 2 2 3 4 5 5
Wind_Direction
330 333 57 46 58 55 272 259 280 304 262 271 307 197 196 210 194 210 356 189 165 159 165 160 158 149 147 149 147 145 147 139 147 161 144 134 106 87 135 93 89 63 55 51 65 56 51 63 67
335 347 44 87 112 183 261 251 228 284 288 306 259 207 230 195 158 260 139 187 179 161 161 162 148 149 151 152 151 150 148 149 142 160 146 132 127 136 145 128 115 81 63 64 67 64 57 61 59
88 32 72 97 131 202 217 216 215 289 301 237 258 262 174 249 130 223 137 161 158 162 163 156 154 154 154 155 154 153 149 148 146 136 124 145 175 161 166 155 126 102 82 73 73 68 60 56 46
45 30 73 175 221 238 219 211 233 339 336 103 342 272 272 276 119 242 137 142 151 153 163 157 158 156 153 156 157 156 157 151 146 134 139 191 190 186 188 177 147 128 107 78 64 44 20 21 2
41 74 151 221 248 245 249 254 271 304 283 290 8 265 249 283 350 139 144 154 149 158 161 170 156 154 153 159 159 160 160 161 157 155 178 179 76 302 243 137 143 147 126 106 10 355 343 350 338
91 108 150 231 240 246 260 241 244 217 264 285 256 293 236 269 187 151 154 154 156 157 163 173 158 155 159 163 161 162 162 163 172 178 185 199 37 360 170 148 149 147 137 324 326 342 333 325 318
136 126 196 214 250 255 242 204 229 247 254 269 166 240 281 212 149 140 141 149 156 157 165 173 176 168 165 165 165 164 162 160 171 186 190 169 61 29 104 133 143 148 174 348 332 325 329 326 325
119 129 150 221 226 262 239 198 244 188 274 299 216 242 317 23 146 135 130 138 153 166 177 180 177 179 175 176 167 166 162 157 157 166 167 130 101 50 46 108 113 85 5 357 338 336 327 20 43
152 128 205 221 174 221 272 146 323 296 276 340 307 250 339 38 124 133 136 152 162 187 192 190 183 182 173 176 177 171 167 160 154 150 138 126 127 68 63 52 33 16 4 6 0 25 55 66 61
159 185 212 195 186 225 275 282 327 329 337 284 319 329 357 98 195 185 184 186 191 195 197 196 192 188 177 176 178 177 171 170 158 150 151 139 139 167 46 34 17 352 21 36 63 63 59 51 50
177 231 193 200 182 258 271 287 240 213 266 234 274 312 332 5 230 237 229 210 207 196 196 198 193 188 186 185 175 178 176 169 158 158 157 149 137 137 112 124 65 52 64 69 62 51 48 46 39
216 256 239 234 300 286 226 283 272 241 248 270 224 286 301 310 296 241 236 237 210 195 198 198 195 189 190 186 185 179 178 178 169 170 164 165 153 142 118 98 81 72 72 76 61 55 48 44 42
213 271 257 283 303 267 255 240 247 244 243 257 276 286 275 281 278 271 251 248 225 228 212 203 195 194 189 188 185 184 183 179 175 173 169 166 163 139 115 99 81 79 75 69 71 61 49 38 26
206 242 282 286 267 263 255 261 201 245 226 245 243 241 253 250 264 278 267 254 224 227 219 206 204 197 189 189 187 188 182 174 172 175 174 170 150 126 112 107 94 79 72 74 73 59 49 39 21
233 284 279 241 227 241 238 261 234 249 235 244 242 243 251 257 255 251 255 254 242 238 243 213 206 194 191 190 185 183 180 171 173 174 174 156 134 123 117 105 94 90 83 87 82 71 50 31 16
234 235 257 264 250 244 189 263 272 255 229 238 245 248 245 249 253 252 248 240 255 256 240 235 210 195 189 183 178 179 175 159 145 132 132 127 123 120 115 110 103 96 94 82 67 39 45 14 358
220 249 228 299 207 288 199 269 281 346 309 272 264 259 248 254 259 262 258 234 249 253 256 231 203 191 183 170 166 157 143 129 119 119 126 123 119 116 114 109 110 105 92 76 68 57 33 13 348
195 222 232 228 330 355 290 275 279 284 289 289 291 273 262 251 258 261 254 236 249 247 238 220 194 180 170 146 120 113 113 103 108 111 119 118 115 115 123 114 111 106 90 73 72 70 55 16 341
206 250 251 261 283 306 275 280 277 277 269 268 262 264 267 260 250 257 258 246 242 228 212 197 175 170 155 147 137 136 142 128 106 108 117 116 119 124 127 106 107 91 81 78 58 92 46 28 358
252 259 265 285 260 270 293 279 276 263 257 251 254 250 248 254 249 246 249 232 212 214 199 177 175 168 165 159 137 122 136 114 102 97 93 112 115 130 112 113 103 100 101 82 64 54 89 46 23
233 251 268 269 298 274 281 278 265 250 248 251 253 256 253 244 243 243 237 220 206 202 197 177 169 164 151 136 116 105 98 95 94 103 101 106 121 114 109 106 108 101 97 94 80 62 57 57 58
251 208 243 259 272 270 164 292 246 271 269 265 249 246 244 237 239 237 227 212 207 203 178 169 161 156 146 150 144 150 150 151 149 129 119 112 118 109 107 108 107 106 109 106 96 79 71 77 46
228 192 218 228 237 276 234 267 285 17 280 275 254 245 237 234 230 231 226 211 206 174 171 163 158 159 156 155 155 153 142 115 122 121 123 120 109 105 106 109 110 112 109 101 98 91 74 64 76
98 278 258 238 235 244 226 205 276 261 239 300 268 257 245 241 233 231 224 214 182 154 156 159 161 159 159 156 161 153 139 138 134 139 131 131 123 112 105 106 109 110 107 101 95 93 81 84 79
187 172 237 232 213 248 184 190 246 294 289 278 271 267 262 246 244 225 200 183 175 166 163 159 163 160 163 162 158 150 147 152 151 146 147 145 136 128 123 123 120 109 108 100 97 84 71 73 35
191 184 206 223 215 255 217 233 247 230 253 260 289 287 285 251 232 216 207 193 184 170 163 161 162 156 158 149 144 138 141 146 144 138 142 140 134 128 130 121 118 114 107 96 82 69 52 50 351
178 216 238 275 264 269 237 255 281 248 257 292 289 302 288 256 228 218 200 189 177 171 170 160 153 149 149 136 122 119 128 133 133 130 131 130 124 125 125 125 118 106 99 87 70 46 12 357 350
212 176 176 198 242 242 244 246 239 248 234 295 297 327 338 292 232 197 190 181 177 166 153 144 145 140 130 121 128 130 134 123 122 127 129 127 123 124 125 119 111 105 96 81 49 21 15 337 332
191 216 217 242 229 247 268 252 214 228 194 251 319 340 344 323 249 199 177 158 144 139 140 135 133 127 122 121 126 127 122 121 122 124 125 123 123 124 119 116 113 104 92 59 32 8 325 322 311
213 224 219 228 224 224 246 262 14 178 195 356 340 338 359 345 304 164 145 136 135 132 135 135 127 122 122 124 124 122 119 121 122 124 124 126 120 115 116 116 110 105 84 48 10 333 311 305 314